Weather History for Key West, FL

Change the Weather History Date:

Saturday, November 17, 2012

  Actual Average Record
Temperature  
Mean Temperature 74 °F 76 °F  
Max Temperature 77 °F 80 °F 87 °F (1957)
Min Temperature 70 °F 72 °F 56 °F (1940)
Degree Days  
Heating Degree Days 0 0  
Month to date heating degree days 0 0  
Since 1 July heating degree days 0 0  
Cooling Degree Days 9 11  
Month to date cooling degree days 144 200  
Year to date cooling degree days 4480 4408  
Growing Degree Days 24 (Base 50)    
Moisture  
Dew Point 67 °F    
Average Humidity 86    
Maximum Humidity 97    
Minimum Humidity 74    
Precipitation  
Precipitation 0.00 in 0.07 in 1.22 in (1987)
Month to date precipitation 0.10 1.39  
Year to date precipitation 46.30 36.70  
Snow  
Snow 0.00 in - - ()
Month to date snowfall 0.0  
Since 1 July snowfall 0.0  
Since 1 September snowfall 0.0  
Snow Depth 0.00 in    
Sea Level Pressure  
Sea Level Pressure 30.05 in    
Wind  
Wind Speed 9 mph (NE)    
Max Wind Speed 16 mph    
Max Gust Speed 23 mph    
Visibility 10 miles    
Events      
T = Trace of Precipitation, MM = Missing Value Source: NWS Daily Summary

Daily Weather History Graph

Daily Weather History Graph

Search for Another Location

Airport:

Trip Planner

Search our weather history database for the weather conditions in past years. The results will help you decide how hot, cold, wet, or windy it might be!

Date:

Astronomy

Nov. 17, 2012 Rise Set
Actual Time 6:44 AM EST 5:39 PM EST
Civil Twilight 6:20 AM EST 6:03 PM EST
Nautical Twilight 5:52 AM EST 6:31 PM EST
Astronomical Twilight 5:25 AM EST 6:58 PM EST
Moon 10:27 AM EST (11/17) 9:45 PM EST (11/17)
Length of Visible Light 11h 42m
Length of Day
10h 54m
Waxing Crescent, 20% of the Moon is Illuminated
Nov 17
Waxing Crescent
Nov 20
First Quarter
Nov 28
Full
Dec 6
Last Quarter
Dec 13
New

Hourly Weather History & Observations

Time (EST) Temp. Dew Point Humidity Pressure Visibility Wind Dir Wind Speed Gust Speed Precip Events Conditions
12:53 AM 71.1 °F 66.9 °F 87% 30.04 in 10.0 mi NNE 8.1 mph - N/A   Clear
1:53 AM 71.1 °F 66.9 °F 87% 30.03 in 10.0 mi NNE 8.1 mph - N/A   Clear
2:53 AM 71.1 °F 68.0 °F 90% 30.01 in 10.0 mi NNE 10.4 mph - N/A   Clear
3:53 AM 71.1 °F 68.0 °F 90% 30.02 in 10.0 mi NNE 6.9 mph - N/A   Clear
4:53 AM 71.1 °F 68.0 °F 90% 30.02 in 10.0 mi NNE 8.1 mph - N/A   Clear
5:35 AM 69.8 °F 68.0 °F 94% 30.03 in 10.0 mi NNE 10.4 mph - N/A   Partly Cloudy
5:53 AM 70.0 °F 68.0 °F 93% 30.04 in 10.0 mi NNE 10.4 mph - N/A   Partly Cloudy
6:53 AM 70.0 °F 66.9 °F 90% 30.04 in 10.0 mi NNE 10.4 mph - N/A   Scattered Clouds
7:53 AM 71.1 °F 68.0 °F 90% 30.06 in 10.0 mi NNE 10.4 mph - N/A   Clear
8:16 AM 71.6 °F 66.2 °F 83% 30.06 in 10.0 mi NE 9.2 mph 18.4 mph N/A   Partly Cloudy
8:53 AM 71.1 °F 68.0 °F 90% 30.07 in 10.0 mi NNE 10.4 mph - N/A   Clear
9:04 AM 71.6 °F 66.2 °F 83% 30.08 in 10.0 mi NE 11.5 mph 18.4 mph N/A   Partly Cloudy
9:44 AM 73.4 °F 68.0 °F 83% 30.08 in 10.0 mi NNE 12.7 mph 19.6 mph N/A   Mostly Cloudy
9:53 AM 73.0 °F 66.9 °F 81% 30.09 in 10.0 mi NE 13.8 mph 19.6 mph N/A   Mostly Cloudy
10:36 AM 73.4 °F 68.0 °F 83% 30.08 in 10.0 mi NNE 10.4 mph 19.6 mph N/A   Scattered Clouds
10:53 AM 73.9 °F 66.9 °F 79% 30.09 in 10.0 mi NE 11.5 mph - N/A   Clear
11:53 AM 75.9 °F 68.0 °F 76% 30.06 in 10.0 mi NNE 12.7 mph 19.6 mph N/A   Clear
12:53 PM 75.9 °F 66.9 °F 74% 30.05 in 10.0 mi NE 12.7 mph 18.4 mph N/A   Clear
1:53 PM 75.9 °F 68.0 °F 76% 30.03 in 10.0 mi NE 9.2 mph - N/A   Clear
2:53 PM 75.9 °F 68.0 °F 76% 30.02 in 10.0 mi NE 8.1 mph - N/A   Clear
3:53 PM 77.0 °F 68.0 °F 74% 30.02 in 10.0 mi NNE 9.2 mph - N/A   Clear
4:53 PM 75.9 °F 66.0 °F 71% 30.02 in 10.0 mi ENE 6.9 mph - N/A   Clear
5:53 PM 75.0 °F 66.0 °F 73% 30.02 in 10.0 mi NE 6.9 mph - N/A   Clear
6:53 PM 73.9 °F 66.9 °F 79% 30.04 in 10.0 mi ENE 3.5 mph - N/A   Clear
7:53 PM 73.9 °F 66.0 °F 76% 30.04 in 10.0 mi NE 5.8 mph - N/A   Clear
8:53 PM 73.9 °F 68.0 °F 82% 30.05 in 10.0 mi NE 5.8 mph - N/A   Clear
9:53 PM 73.9 °F 69.1 °F 85% 30.06 in 10.0 mi NNE 10.4 mph - N/A   Mostly Cloudy
10:53 PM 73.0 °F 68.0 °F 84% 30.06 in 10.0 mi NNE 6.9 mph - N/A   Clear
11:53 PM 73.0 °F 68.0 °F 84% 30.05 in 10.0 mi NNE 8.1 mph - N/A   Clear